リニア彗星

237P/LINEAR (2016)

English version
Home page
Updated on November 7, 2017

---------------------------------------------------------------------

・ プロフィール

・ 写真集

・ 軌道要素

Epoch 2016 Oct. 19.0 TT = JDT 2457680.5
T 2016 Oct. 11.67445 TT                                 MPCW
q   1.9848401            (2000.0)            P               Q
n   0.14990679     Peri.   25.04096     -0.00318789     +0.97540944
a   3.5095803      Node   245.43370     -0.95343601     -0.06942654
e   0.4344509      Incl.   14.02300     -0.30157853     +0.20918024
P   6.57
From 119 observations 2002 May 17-2016 Apr. 16, mean residual 0".5.

・ 星図

・ 光度変化

        H = 15.0  G = 0.15               [    ,-194]  (              〜2016年 3月31日)
        m1 = -12   + 5 logΔ + 75 log r  [-194,   0]  (2016年 3月31日〜2016年10月11日)
        m1 =   0.0 + 5 logΔ + 35 log r  [   0, 380]  (2016年10月11日〜2017年10月26日)
        H = 15.0  G = 0.15               [ 380,    ]  (2017年10月26日〜              )

---------------------------------------------------------------------

軌道要素はM.P.E.C. 2016-H35に掲載されたものです。
星図はステラナビゲータ Ver.8 (アストロアーツ) で作成したものです。
光度グラフはComet for Windowsで作成したものです。

---------------------------------------------------------------------

Copyright(C) Seiichi Yoshida (comet@aerith.net). All rights reserved.